{"data":{"norad_id":53482,"intl_designator":"2022-099T","name":"STARLINK-4360","alt_names":[],"object_type":"PAYLOAD","status":"ACTIVE","operator":null,"country":"US","launch_date":"2022-08-12","launch_site_code":"AFWTR","launch_vehicle":null,"mission":null,"orbit_class":"UNKNOWN","rcs_meters":null,"size_class":null,"mass_kg":null,"dimensions":null,"purposes":["comms"],"wikipedia_slug":null,"has_3d_model":false,"image_url":null,"decayed_at":null,"tle_current":{"epoch":"2026-05-25T00:33:25.731072Z","epoch_age_seconds":69569,"freshness":"FRESH","line1":"1 53482U 22099T   26145.02321448 -.00001363  00000+0 -90430-4 0  9990","line2":"2 53482  97.4510 265.0217 0001317 180.0960 180.0267 15.05653946207466","mean_motion":15.05653946,"eccentricity":0.0001317,"inclination_deg":97.451,"raan_deg":265.0217,"arg_perigee_deg":180.096,"mean_anomaly_deg":180.0267,"bstar":-9.043e-5,"rev_number":20746,"period_min":95.639506264077,"perigee_km":548.58668043396,"apogee_km":550.41141976956,"semimajor_km":6927.6360501018,"source":"CELESTRAK","updated_at":"2026-05-25T13:38:17.433174Z"}}}